Change the Weather History Date:

Sunday, March 16, 2014

  Actual Average (KMQI) Record (KMQI)
Temperature  
Mean Temperature 48 °F -  
Max Temperature 54 °F 55 °F 78 °F (1973)
Min Temperature 42 °F 42 °F 26 °F (1993)
Degree Days  
Heating Degree Days 17    
Moisture  
Dew Point 42 °F    
Average Humidity 83    
Maximum Humidity 98    
Minimum Humidity 55    
Precipitation  
Precipitation 0.43 in - - ()
Sea Level Pressure  
Sea Level Pressure 29.99 in    
Wind  
Wind Speed 6 mph (NNE)    
Max Wind Speed 14 mph    
Max Gust Speed 24 mph    
Visibility 8 miles    
Events Rain    
Averages and records for this station are not official NWS values.
T = Trace of Precipitation, MM = Missing Value Source: NWS Daily Summary

Daily Weather History Graph

Daily Weather History Graph

Search for Another Location

Airport or City:

Trip Planner

Search our weather history database for the weather conditions in past years. The results will help you decide how hot, cold, wet, or windy it might be!

Date:

Astronomy

Mar. 16, 2014 Rise Set
Actual Time 7:12 AM EDT 7:11 PM EDT
Civil Twilight 6:46 AM EDT 7:36 PM EDT
Nautical Twilight 6:16 AM EDT 8:06 PM EDT
Astronomical Twilight 5:46 AM EDT 8:36 PM EDT
Moon 7:24 PM EDT (3/16) 6:54 AM EDT (3/16)
Length of Visible Light 12h 50m
Length of Day
11h 58m
Full, 100% of the Moon is Illuminated
Mar 16
Full
Mar 16
Full
Mar 23
Last Quarter
Mar 30
New
Apr 7
First Quarter

Hourly Weather History & Observations

Time (EDT) Temp. Windchill Dew Point Humidity Pressure Visibility Wind Dir Wind Speed Gust Speed Precip Events Conditions
12:15 AM 54.9 °F - 41.0 °F 60% 30.01 in 10.0 mi SSW 3.5 mph - N/A   Clear
12:35 AM 54.3 °F - 41.2 °F 61% 30.01 in 10.0 mi SW 3.5 mph - N/A   Clear
12:55 AM 54.5 °F - 40.6 °F 60% 30.01 in 10.0 mi Calm Calm - N/A   Clear
1:15 AM 54.9 °F - 39.7 °F 57% 30.01 in 10.0 mi Calm Calm - N/A   Clear
1:35 AM 54.3 °F - 40.5 °F 59% 30.01 in 10.0 mi West 3.5 mph - N/A   Clear
2:15 AM 54.1 °F - 41.2 °F 62% 30.02 in 10.0 mi West 4.6 mph - N/A   Clear
2:35 AM 52.9 °F - 42.3 °F 67% 30.02 in 10.0 mi WNW 5.8 mph - N/A   Clear
2:55 AM 52.2 °F - 43.3 °F 72% 30.01 in 10.0 mi WNW 4.6 mph - N/A   Clear
3:15 AM 51.6 °F - 43.3 °F 73% 30.01 in 10.0 mi NNW 4.6 mph - N/A   Clear
3:35 AM 52.0 °F - 39.6 °F 63% 30.01 in 10.0 mi North 5.8 mph - N/A   Clear
3:55 AM 51.4 °F - 35.8 °F 55% 30.01 in 10.0 mi NNE 9.2 mph - N/A   Clear
4:15 AM 49.3 °F - 36.3 °F 61% 30.01 in 10.0 mi NNE 5.8 mph - N/A   Clear
4:35 AM 47.8 °F - 37.2 °F 67% 30.01 in 10.0 mi NE 5.8 mph - N/A   Clear
4:55 AM 46.6 °F - 37.4 °F 70% 30.01 in 10.0 mi ENE 3.5 mph - N/A   Clear
5:15 AM 45.5 °F 43.2 °F 37.6 °F 74% 30.01 in 10.0 mi NE 4.6 mph - N/A   Clear
5:35 AM 45.1 °F 42.0 °F 37.9 °F 76% 30.01 in 10.0 mi NE 5.8 mph - N/A   Clear
5:55 AM 45.3 °F 43.0 °F 38.1 °F 76% 30.02 in 10.0 mi NE 4.6 mph - N/A   Clear
6:15 AM 44.8 °F 42.4 °F 38.3 °F 78% 30.03 in 10.0 mi NNE 4.6 mph - N/A   Clear
6:35 AM 44.8 °F 41.6 °F 39.0 °F 80% 30.04 in 10.0 mi NNE 5.8 mph - N/A   Clear
6:55 AM 45.1 °F 41.4 °F 39.6 °F 81% 30.04 in 10.0 mi NNE 6.9 mph - N/A   Clear
7:15 AM 45.5 °F 41.8 °F 40.1 °F 81% 30.05 in 10.0 mi NE 6.9 mph - N/A   Clear
7:35 AM 45.1 °F 42.0 °F 40.1 °F 82% 30.05 in 10.0 mi NE 5.8 mph - N/A   Clear
8:15 AM 46.8 °F - 41.4 °F 81% 30.06 in 10.0 mi NNE 6.9 mph - N/A   Clear
8:35 AM 47.1 °F - 41.7 °F 81% 30.06 in 10.0 mi NE 8.1 mph - N/A   Clear
8:55 AM 48.0 °F - 42.4 °F 81% 30.07 in 10.0 mi NE 8.1 mph - N/A   Clear
9:15 AM 49.1 °F - 43.0 °F 79% 30.07 in 10.0 mi NE 6.9 mph - N/A   Clear
9:35 AM 49.5 °F - 43.2 °F 79% 30.07 in 10.0 mi NE 8.1 mph - N/A   Clear
9:55 AM 49.5 °F - 43.2 °F 79% 30.06 in 10.0 mi NE 9.2 mph 16.1 mph N/A   Clear
10:15 AM 49.1 °F - 43.5 °F 81% 30.05 in 10.0 mi NE 9.2 mph - N/A   Clear
10:35 AM 49.1 °F - 43.7 °F 82% 30.06 in 10.0 mi NE 8.1 mph 16.1 mph N/A   Clear
10:55 AM 49.1 °F - 43.5 °F 81% 30.05 in 10.0 mi NE 10.4 mph 17.3 mph N/A   Clear
11:15 AM 49.5 °F - 43.5 °F 80% 30.05 in 10.0 mi NE 9.2 mph 16.1 mph N/A   Clear
11:35 AM 50.0 °F - 43.2 °F 77% 30.04 in 10.0 mi NNE 10.4 mph 16.1 mph N/A   Clear
11:55 AM 50.0 °F - 42.8 °F 76% 30.03 in 10.0 mi NNE 10.4 mph 17.3 mph N/A   Clear
12:15 PM 50.2 °F - 42.8 °F 76% 30.04 in 10.0 mi NNE 8.1 mph 17.3 mph N/A   Clear
12:35 PM 49.3 °F - 42.8 °F 78% 30.04 in 10.0 mi NE 9.2 mph - N/A   Clear
12:55 PM 48.4 °F - 42.4 °F 80% 30.03 in 10.0 mi NNE 9.2 mph - N/A   Scattered Clouds
1:15 PM 48.2 °F - 42.4 °F 80% 30.03 in 10.0 mi North 6.9 mph 17.3 mph N/A   Scattered Clouds
1:35 PM 48.2 °F - 42.3 °F 80% 30.02 in 10.0 mi North 8.1 mph 16.1 mph N/A   Mostly Cloudy
1:55 PM 48.0 °F - 42.3 °F 80% 30.01 in 10.0 mi North 9.2 mph 17.3 mph N/A   Overcast
2:15 PM 47.5 °F - 41.9 °F 81% 30.01 in 10.0 mi North 12.7 mph 17.3 mph N/A   Overcast
2:55 PM 45.9 °F 41.2 °F 41.7 °F 85% 30.00 in 7.0 mi North 9.2 mph 18.4 mph N/A   Drizzle
3:15 PM 45.3 °F 41.1 °F 41.7 °F 87% 30.01 in 7.0 mi North 8.1 mph 18.4 mph N/A   Drizzle
3:35 PM 44.6 °F 39.2 °F 41.7 °F 90% 30.01 in 3.0 mi North 10.4 mph 16.1 mph 0.02 in Rain Light Rain
3:55 PM 43.9 °F 38.8 °F 41.9 °F 93% 30.02 in 4.0 mi North 9.2 mph 17.3 mph 0.06 in Rain Light Rain
4:15 PM 43.7 °F 38.6 °F 42.1 °F 94% 30.02 in 4.0 mi North 9.2 mph - 0.02 in Rain Light Rain
4:35 PM 43.2 °F 38.4 °F 41.7 °F 95% 30.01 in 4.0 mi North 8.1 mph 18.4 mph 0.05 in Rain Light Rain
4:55 PM 42.8 °F 37.5 °F 41.4 °F 95% 30.01 in 4.0 mi NNE 9.2 mph - 0.08 in Rain Light Rain
5:15 PM 42.4 °F 37.0 °F 41.2 °F 95% 30.00 in 4.0 mi NNE 9.2 mph 18.4 mph 0.02 in Rain Light Rain
5:35 PM 42.1 °F 37.7 °F 41.0 °F 96% 29.98 in 4.0 mi NNE 6.9 mph 16.1 mph 0.04 in Rain Light Rain
5:55 PM 42.1 °F 37.1 °F 41.0 °F 96% 29.98 in 5.0 mi North 8.1 mph - 0.04 in Rain Light Rain
6:15 PM 42.1 °F 36.1 °F 41.0 °F 96% 29.96 in 4.0 mi NNE 10.4 mph 17.3 mph 0.01 in Rain Light Rain
6:35 PM 42.1 °F 36.1 °F 41.0 °F 96% 29.95 in 4.0 mi NNE 10.4 mph 17.3 mph 0.02 in Rain Rain
6:55 PM 42.6 °F 37.2 °F 41.7 °F 97% 29.95 in 4.0 mi NNE 9.2 mph - 0.03 in Rain Light Rain
7:15 PM 43.2 °F 37.9 °F 42.3 °F 97% 29.94 in 3.0 mi NNE 9.2 mph - 0.01 in Rain Light Rain
7:35 PM 43.9 °F 39.3 °F 43.0 °F 97% 29.92 in 3.0 mi NE 8.1 mph - 0.03 in Rain Light Rain
7:55 PM 44.6 °F 40.2 °F 43.9 °F 97% 29.92 in 3.0 mi NE 8.1 mph 17.3 mph 0.06 in Rain Light Rain
8:15 PM 44.6 °F 39.7 °F 43.9 °F 97% 29.91 in 3.0 mi NNE 9.2 mph 20.7 mph 0.01 in Rain Light Rain
8:35 PM 44.4 °F 39.5 °F 43.5 °F 97% 29.91 in 3.0 mi NNE 9.2 mph - 0.03 in Rain Light Rain
8:55 PM 44.2 °F 38.4 °F 43.5 °F 97% 29.92 in 3.0 mi NNE 11.5 mph 18.4 mph 0.05 in Rain Light Rain
9:15 PM 43.9 °F 38.3 °F 43.3 °F 98% 29.90 in 3.0 mi NNE 10.4 mph 18.4 mph 0.01 in Rain Rain
9:35 PM 43.7 °F 38.1 °F 42.8 °F 97% 29.88 in 4.0 mi NNE 10.4 mph 19.6 mph 0.02 in   Drizzle
9:55 PM 43.3 °F 36.8 °F 42.4 °F 97% 29.89 in 4.0 mi NNE 12.7 mph 24.2 mph 0.03 in Rain Light Rain
10:15 PM 43.5 °F 38.9 °F 42.6 °F 97% 29.89 in 2.5 mi NNE 8.1 mph 16.1 mph 0.03 in Rain Rain
10:35 PM 43.7 °F 37.7 °F 42.8 °F 97% 29.86 in 2.5 mi NNE 11.5 mph 18.4 mph 0.05 in   Drizzle
10:55 PM 44.2 °F 39.7 °F 43.3 °F 97% 29.87 in 2.5 mi NNE 8.1 mph - 0.06 in Rain Rain
11:15 PM 44.4 °F 38.6 °F 43.7 °F 97% 29.86 in 3.0 mi NNE 11.5 mph 18.4 mph 0.02 in   Drizzle
11:35 PM 43.9 °F 37.5 °F 43.2 °F 97% 29.83 in 3.0 mi NNE 12.7 mph 17.3 mph 0.02 in   Drizzle
11:55 PM 43.7 °F 36.9 °F 43.0 °F 97% 29.82 in 4.0 mi NNE 13.8 mph 21.9 mph 0.02 in   Light Drizzle